Weather History for Wautoma, WI

Change the Weather History Date:

Tuesday, May 13, 2014

  Actual Average (KPCZ) Record (KPCZ)
Temperature  
Mean Temperature 56 °F -  
Max Temperature 66 °F 68 °F 88 °F (1961)
Min Temperature 45 °F 42 °F 29 °F (1953)
Degree Days  
Heating Degree Days 10    
Growing Degree Days 6 (Base 50)    
Moisture  
Dew Point 51 °F    
Average Humidity 82    
Maximum Humidity 94    
Minimum Humidity 57    
Precipitation  
Precipitation 0.01 in - - ()
Sea Level Pressure  
Sea Level Pressure 29.90 in    
Wind  
Wind Speed 11 mph (West)    
Max Wind Speed 20 mph    
Max Gust Speed 28 mph    
Visibility 8 miles    
Events Rain    
Averages and records for this station are not official NWS values.
T = Trace of Precipitation, MM = Missing Value Source: NWS Daily Summary

Daily Weather History Graph

Daily Weather History Graph

Search for Another Location

Airport:

Trip Planner

Search our weather history database for the weather conditions in past years. The results will help you decide how hot, cold, wet, or windy it might be!

Date:

Astronomy

May. 13, 2014 Rise Set
Actual Time 5:33 AM CDT 8:14 PM CDT
Civil Twilight 5:00 AM CDT 8:47 PM CDT
Nautical Twilight 4:18 AM CDT 9:29 PM CDT
Astronomical Twilight 3:30 AM CDT 10:18 PM CDT
Moon 7:13 PM CDT (5/13) 4:53 AM CDT (5/13)
Length of Visible Light 15h 47m
Length of Day
14h 41m
Waxing Gibbous, 99% of the Moon is Illuminated
May 13
Waxing Gibbous
May 14
Full
May 21
Last Quarter
May 28
New
Jun 5
First Quarter

Hourly Weather History & Observations

Time (CDT) Temp. Windchill Dew Point Humidity Pressure Visibility Wind Dir Wind Speed Gust Speed Precip Events Conditions
12:15 AM 66.2 °F - 62.6 °F 88% 29.81 in 8.0 mi SSE 8.1 mph - 0.02 in Rain Light Rain
1:56 AM 65.8 °F - 63.0 °F 90% 29.73 in 10.0 mi South 8.1 mph - 0.00 in   Clear
2:56 AM 65.8 °F - 63.0 °F 90% 29.72 in 10.0 mi SSW 8.1 mph - N/A   Overcast
3:36 AM 66.2 °F - 62.6 °F 88% 29.76 in 10.0 mi SSW 13.8 mph - N/A   Mostly Cloudy
3:56 AM 66.2 °F - 62.6 °F 88% 29.76 in 10.0 mi SW 12.7 mph - N/A   Mostly Cloudy
4:10 AM 64.4 °F - 62.6 °F 94% 29.77 in 3.0 mi WSW 10.4 mph - 0.00 in Rain Light Rain
4:13 AM 64.4 °F - 62.6 °F 94% 29.77 in 2.5 mi WSW 15.0 mph 19.6 mph 0.00 in Rain Light Rain
4:27 AM 60.8 °F - 57.2 °F 88% 29.79 in 2.5 mi West 19.6 mph 27.6 mph 0.00 in Rain Light Rain
4:42 AM 57.2 °F - 55.4 °F 94% 29.80 in 4.0 mi West 15.0 mph 23.0 mph 0.01 in Rain Light Rain
4:56 AM 56.8 °F - 54.9 °F 93% 29.79 in 10.0 mi West 13.8 mph - 0.01 in Rain Light Rain
5:48 AM 55.4 °F - 53.6 °F 94% 29.84 in 3.0 mi West 13.8 mph - 0.00 in Rain Light Rain
5:56 AM 54.9 °F - 52.9 °F 93% 29.83 in 2.5 mi WNW 15.0 mph - 0.00 in Rain Light Rain
6:06 AM 53.6 °F - 51.8 °F 94% 29.85 in 3.0 mi WNW 12.7 mph - 0.00 in Rain Light Rain
6:15 AM 53.6 °F - 51.8 °F 94% 29.85 in 10.0 mi WNW 11.5 mph - 0.00 in Rain Light Rain
6:56 AM 53.6 °F - 50.0 °F 88% 29.87 in 10.0 mi WNW 6.9 mph - N/A   Overcast
7:13 AM 53.6 °F - 50.0 °F 88% 29.87 in 10.0 mi WNW 5.8 mph - N/A   Overcast
8:22 AM 53.6 °F - 51.8 °F 94% 29.88 in 10.0 mi WNW 11.5 mph - N/A   Overcast
9:15 AM 53.6 °F - 50.0 °F 88% 29.90 in 10.0 mi WNW 13.8 mph - 0.00 in   Overcast
9:22 AM 53.6 °F - 50.0 °F 88% 29.90 in 10.0 mi WNW 12.7 mph - 0.00 in   Overcast
11:56 AM 54.0 °F - 45.9 °F 74% 29.95 in 10.0 mi West 12.7 mph - N/A   Overcast
12:56 PM 54.0 °F - 43.9 °F 69% 29.96 in 10.0 mi WNW 16.1 mph - N/A   Overcast
1:56 PM 55.9 °F - 43.9 °F 64% 29.97 in 10.0 mi WNW 15.0 mph - N/A   Overcast
2:56 PM 57.9 °F - 43.0 °F 58% 29.99 in 10.0 mi West 19.6 mph 26.5 mph N/A   Mostly Cloudy
3:56 PM 56.8 °F - 43.0 °F 60% 29.99 in 10.0 mi WNW 17.3 mph - N/A   Overcast
4:56 PM 56.8 °F - 41.9 °F 57% 30.00 in 10.0 mi West 17.3 mph 26.5 mph N/A   Overcast
5:56 PM 55.9 °F - 41.9 °F 59% 30.03 in 10.0 mi WNW 18.4 mph 24.2 mph N/A   Overcast
6:56 PM 54.0 °F - 41.0 °F 62% 30.06 in 10.0 mi WNW 10.4 mph - N/A   Overcast
8:56 PM 50.9 °F - 39.9 °F 66% 30.11 in 10.0 mi WNW 8.1 mph - N/A   Overcast
9:56 PM 50.0 °F - 39.9 °F 68% 30.13 in 10.0 mi West 6.9 mph - N/A   Scattered Clouds
10:56 PM 45.9 °F 43.6 °F 39.9 °F 80% 30.14 in 10.0 mi WSW 4.6 mph - N/A   Clear
11:56 PM 45.0 °F - 39.9 °F 82% 30.15 in 10.0 mi Calm Calm - N/A   Clear